Regional Weather Roundup
Issued by NWS Sterling, VA

Home | Current Version | Previous Version | Graphics & Text | Print | Product List | Glossary Off
Versions: 1 2 3 4 5 6 7 8 9 10 11 12 13 14 15 16 17 18 19 20 21 22 23 24 25 26 27

000
ASUS41 KLWX 040910
RWRLWX

REGIONAL WEATHER ROUNDUP
NATIONAL WEATHER SERVICE BALTIMORE MD/WASHINGTON DC
500 AM EDT WED MAY 04 2016

Note: "FAIR" indicates few or no clouds below 12,000 feet
with no significant weather and/or obstructions to visibility.
 TC=TEMPERATURE CELSIUS

 * =Non NWS site. Station does not report precipitation (e.g. rain,
    snow, etc.), thunder, or fog.

DCZ001-MDZ009-015-VAZ040>042-051-053>054-041000-
WASHINGTON METRO

CITY           SKY/WX    TMP DP  RH WIND       PRES   REMARKS
WASHINGTON NAT CLOUDY    56  53  90 NE9       29.74F
DULLES         CLOUDY    55  53  93 CALM      29.74S
ANDREWS AFB    CLOUDY    54  52  94 NE9       29.72F
FT BELVOIR     CLOUDY    55  54  94 CALM      29.74S
QUANTICO       CLOUDY    57  55  93 E6        29.74F
COLLEGE PARK*  CLOUDY    54  52  94 E3        29.74F
LEESBURG*      CLOUDY    55  55 100 SE3       29.75S FOG
MANASSAS*      CLOUDY    57  57 100 CALM      29.74F
GAITHERSBURG*  CLOUDY    54  50  87 E5        29.78S

$$

MDZ006>007-011-014-041000-
BALTIMORE METRO

CITY           SKY/WX    TMP DP  RH WIND       PRES   REMARKS
BWI AIRPORT    CLOUDY    53  51  93 E10       29.74F
MD SCIENCE CTR   N/A     54  50  86 MISG      29.77R
MARTIN STATE   CLOUDY    54  52  94 E6        29.77F
ANNAPOLIS      CLOUDY    54  51  90 NE5       29.75S
FORT MEADE*    CLOUDY    52  50  93 E5        29.77F

$$

MDZ012-015-019>023-041000-
MARYLAND EASTERN SHORE

CITY           SKY/WX    TMP DP  RH WIND       PRES   REMARKS
OCEAN CITY     CLOUDY    50  50 100 NE13      29.71F
SALISBURY      CLOUDY    51  50  96 NE8       29.72F
CAMBRIDGE*     CLOUDY    50  50 100 NE5       29.74S
EASTON*        CLOUDY   N/A N/A N/A NE8       29.77F

$$

MDZ017>025-041000-
SOUTHERN MARYLAND

CITY           SKY/WX    TMP DP  RH WIND       PRES   REMARKS
PATUXENT RIVER CLOUDY    53  50  89 NE7       29.72F
ST INIGOES     CLOUDY    54  52  93 NE8       29.70F
LEONARDTOWN*   CLOUDY    52  50  93 CALM      29.74F

$$

MDZ003>005-041000-
NORTH CENTRAL MARYLAND

CITY           SKY/WX    TMP DP  RH WIND       PRES   REMARKS
FREDERICK*     CLOUDY    54  54 100 CALM      29.76R FOG
HAGERSTOWN APT FOG       56  54  93 CALM      29.73S VSB 1/2
WESTMINSTER*   CLOUDY    54  45  71 SE7       29.74R

$$

MDZ501>502-041000-
WESTERN MARYLAND

CITY           SKY/WX    TMP DP  RH WIND       PRES   REMARKS
OAKLAND*       MOCLDY    43  43 100 CALM      29.74F FOG
CUMBERLAND*    CLEAR     50  48  93 CALM      29.78S

$$

VAZ025>031-041000-
SHENANDOAH VALLEY

CITY           SKY/WX    TMP DP  RH WIND       PRES   REMARKS
WINCHESTER*    FAIR      50  50 100 CALM      29.73F FOG
FRONT ROYAL*   CLOUDY    54  54 100 CALM      29.72S
LURAY*         CLOUDY    54  54 100 CALM      29.73F FOG
NEW MARKET*    CLOUDY    51  51 100 CALM      29.73F
STAUNTON*      MOCLDY    53  53  98 CALM      29.76S
WAYNESBORO*    CLOUDY    54  53  97 NW3       29.74S

$$

WVZ021-048>050-054>055-041000-
EASTERN WEST VIRGINIA PANHANDLE

CITY           SKY/WX    TMP DP  RH WIND       PRES   REMARKS
MARTINSBURG    FOG       55  54  96 CALM      29.72S VSB 1/4
PETERSBURG*    FOG       49  49  99 CALM      29.76S VSB 1/2

$$

VAZ036>039-050-041000-
CENTRAL FOOTHILLS

CITY           SKY/WX    TMP DP  RH WIND       PRES   REMARKS
CHARLOTTESVILL CLOUDY    57  54  89 E6        29.73S FOG
CULPEPER*      CLOUDY    56  56 100 CALM      29.74F FOG
ORANGE*        CLOUDY    55  55 100 CALM      29.75S FOG
GORDONSVILLE*  CLOUDY    56  56 100 NE3       29.72F FOG
WARRENTON*     CLOUDY    57  53  85 CALM      29.73S FOG

$$

VAZ055>057-041000-
NORTH AND CENTRAL PIEDMONT

CITY           SKY/WX    TMP DP  RH WIND       PRES   REMARKS
FREDERICKSBRG* CLOUDY    58  58 100 CALM      29.72F
STAFFORD*      CLOUDY    56  55  94 N3        29.77F FOG

$$

NCZ024-NYZ072-PAZ021-071-VAZ022-071-041000-
OTHER REGIONAL OBSERVATIONS

CITY           SKY/WX    TMP DP  RH WIND       PRES   REMARKS
NEW YORK CITY  CLOUDY    50  43  77 VRB3      29.82S
PHILADELPHIA   LGT RAIN  51  47  86 NE5       29.79S
PITTSBURGH     CLOUDY    51  43  74 CALM      29.72F
ROANOKE        CLOUDY    52  47  83 CALM      29.76F
RICHMOND       LGT RAIN  59  58  96 N8        29.70S
RALEIGH        PTCLDY    59  56  89 CALM      29.70F

$$

ANZ530>537-041000-
MARINE OBSERVATIONS

STATION/POSITION TIME  TEMP    WIND        PRES
                       AIR SEA DIR/SP/G
                 (UTC) (F)     (DEG/KT/KT) (MB)
THOMAS PT LIGHT  0900   53 58   60/  8/  9 1008.5F
BALT KEY BRIDGE  0800   53      70/  8/ 10 1007.4R
COVE POINT       0800   52      80/ 10/ 12 1007.6F
LEWISETTA        0800   55 63   60/  7/ 12 1006.3F
SOLOMONS ISLAND  0800   54 61   50/  7/  9   N/A
PINEY POINT      0800           60/  7/  9   N/A

$$





USA.gov is the U.S. government's official web portal to all federal, state and local government web resources and services.